Location: Grand Mazuras
(45.9128°N, 1.7636°E)
Time: 06:52:42
(UTC+00:00)

Exosat Rocket - Pass Details

Date: 18 April 2021
Orbit: 760 x 2515 km, 72.3° (Epoch: 05 May)

Event Time Altitude Azimuth Distance (km) Brightness Sun altitude
Rises 19:32:55 0° 336° (NNW) 4,247 8.2 -8.7°
Reaches altitude 10° 19:36:08 10° 341° (NNW) 3,033 7.3 -9.2°
Maximum altitude 19:42:44 55° 58° (ENE) 1,087 4.1 -10.3°
Enters shadow 19:47:17 13° 135° (SE) 2,157 5.2 -11.0°
